Theta_e
344 343 343 343 344 344 344 345 344 344 344 341 339 339 340 339 339 338 339 340 339 337 335 336 337 337 338 339 339 339 339 339 339 339 338 338 337 337 337 337 337 338 339 341 342 342 341 342 342 343 344 344 344 343 342 342 342 342 342 342 344 345 344 342 340 340 340 338 337 337 337 339 340 341 341 341 341 341 341 342 342 342 342 342 341
344 344 344 344 344 344 345 345 344 344 344 342 339 339 340 340 339 339 339 341 340 336 335 336 336 337 337 338 340 341 341 341 340 338 337 337 337 337 338 339 340 341 342 342 342 340 340 340 341 343 343 344 344 344 343 342 341 341 341 343 344 344 344 341 340 340 340 339 338 338 339 340 341 341 341 341 339 340 340 341 341 341 342 342 341
344 344 344 344 344 344 344 345 344 344 344 342 339 340 341 341 341 339 339 340 340 337 334 336 338 337 339 339 340 341 342 342 342 339 337 337 338 338 340 342 342 343 342 341 340 339 340 340 340 342 343 344 344 344 343 342 342 342 342 344 344 345 344 342 340 340 340 339 339 341 341 341 342 340 341 341 339 338 339 340 340 341 341 341 341
344 344 344 343 344 343 344 344 344 344 344 342 340 341 342 341 340 340 339 340 340 337 335 337 339 340 341 341 341 342 342 343 342 340 338 339 341 342 343 343 343 343 342 340 339 340 340 341 341 341 343 344 345 344 344 343 343 343 343 344 345 344 345 343 341 340 339 339 341 342 341 342 345 342 340 340 339 339 339 339 340 340 341 341 341
344 344 344 344 344 344 343 343 345 344 345 344 342 342 342 342 340 340 340 340 340 338 338 339 340 341 341 341 340 341 341 341 341 340 339 340 341 343 343 344 344 343 342 341 340 340 341 341 341 342 343 344 345 345 344 344 344 344 344 345 345 345 345 345 344 341 339 339 341 343 343 344 345 343 342 341 340 339 339 339 340 340 340 341 341
344 344 344 344 343 343 343 344 344 344 345 344 343 343 343 341 340 339 340 340 339 339 340 341 340 339 339 339 338 339 339 339 340 339 339 340 340 342 343 344 344 344 343 343 342 341 340 341 341 341 344 345 344 344 344 344 345 345 345 345 346 346 345 346 346 343 341 341 342 343 343 343 343 343 342 342 341 340 339 339 339 339 340 341 340
344 344 343 344 343 343 343 343 344 344 345 345 344 344 343 342 340 340 340 340 340 339 341 341 338 338 338 338 338 337 337 337 338 338 338 338 339 340 343 344 344 344 344 343 342 341 340 341 341 342 344 344 344 344 343 344 346 346 345 346 347 347 346 346 346 345 345 344 344 344 343 342 343 343 343 343 343 343 340 340 340 340 341 342 342
344 343 343 343 343 343 343 343 343 344 345 345 345 344 343 342 342 340 341 341 340 339 341 340 338 338 338 339 340 338 336 336 336 336 336 336 336 337 339 342 343 343 343 342 341 341 341 341 342 342 343 344 343 343 343 344 346 346 346 346 347 348 348 347 346 346 346 345 345 345 344 344 345 344 343 342 344 346 344 343 343 342 343 344 343
343 343 343 343 343 342 342 342 343 344 345 345 345 344 342 342 342 342 342 343 341 338 340 340 338 339 339 340 341 340 339 339 339 338 336 335 334 335 336 338 339 339 339 340 340 340 340 341 342 342 342 343 343 343 343 344 346 346 346 345 346 348 348 348 348 346 346 346 346 345 345 345 345 345 345 343 343 345 346 346 345 345 346 346 344
342 342 342 343 342 341 341 342 343 344 345 345 346 345 342 341 342 343 343 343 342 338 338 340 339 339 340 340 342 342 342 342 343 343 340 336 334 334 334 335 336 337 338 339 339 339 340 341 342 342 342 342 342 343 343 344 345 346 346 346 346 347 348 348 348 348 347 346 345 345 346 346 346 346 347 346 345 346 346 347 347 347 347 348 347
341 341 342 342 341 341 342 341 343 344 345 346 346 346 344 342 342 343 343 344 344 341 339 339 339 339 340 341 343 343 344 344 344 344 343 340 336 333 334 335 336 337 338 339 340 340 340 341 341 342 342 342 342 343 344 344 345 346 346 345 345 345 346 347 347 348 348 348 347 346 346 346 347 347 347 347 347 347 348 348 348 349 348 349 348
340 340 341 342 341 341 342 342 342 344 346 346 347 347 346 344 342 342 342 342 344 343 341 340 339 338 339 342 344 344 345 345 345 345 344 342 338 336 336 336 337 337 338 338 340 340 340 341 341 341 341 342 343 343 343 344 345 346 346 345 345 344 344 346 346 348 348 348 348 347 347 348 348 347 347 347 347 347 348 349 350 349 349 350 348
340 340 340 341 341 341 341 342 343 344 345 347 347 347 347 346 343 342 341 341 341 342 342 340 338 337 340 343 344 344 345 345 345 346 345 343 339 338 338 338 338 338 338 338 339 340 341 341 341 342 342 341 343 343 343 344 345 346 346 344 343 343 344 344 345 346 347 347 347 347 349 350 349 348 348 349 349 348 349 351 351 350 349 350 349
340 340 340 340 340 340 341 341 342 344 345 346 347 347 347 346 344 342 341 340 340 340 340 339 338 336 339 344 345 345 345 345 346 346 346 344 342 340 340 339 339 338 338 338 339 340 340 341 341 342 342 342 342 343 343 344 345 346 346 345 343 343 343 343 343 344 345 345 345 345 347 350 350 349 349 349 350 350 351 351 351 351 351 351 350
340 340 339 340 340 340 341 340 341 343 344 346 346 347 348 347 345 343 342 341 340 339 339 338 338 337 339 343 345 346 347 346 347 346 346 346 345 345 342 341 339 339 338 338 339 340 340 342 342 342 342 342 342 342 343 344 344 344 345 345 345 343 342 342 342 342 342 343 343 342 344 348 348 347 349 350 350 350 350 350 350 351 352 351 351
339 340 339 339 340 340 340 340 341 342 344 346 346 347 347 348 347 345 343 342 340 338 338 338 338 337 337 341 343 346 347 347 347 346 346 346 347 346 345 343 340 339 339 339 340 341 341 342 343 342 342 342 342 342 343 344 344 344 345 345 346 344 343 342 341 341 340 341 341 340 341 344 344 344 347 349 349 349 349 349 349 351 353 352 352
339 340 339 340 340 340 340 341 341 342 343 345 346 346 347 347 348 346 345 343 341 339 338 338 338 337 337 338 340 344 346 346 346 346 346 346 346 346 346 345 343 341 340 340 341 341 341 342 343 342 341 341 341 341 341 343 344 345 346 346 347 346 344 343 342 341 341 341 341 340 340 341 342 342 345 347 347 347 348 348 350 351 352 353 353
339 340 339 340 340 340 341 341 341 341 343 344 345 345 346 346 347 347 346 344 342 341 340 338 338 338 338 338 339 340 343 344 345 345 346 346 346 346 346 346 345 343 343 343 343 342 341 342 343 343 341 341 341 340 341 342 342 344 346 346 346 346 346 344 343 343 344 343 342 342 341 342 342 344 348 351 349 348 349 349 350 350 351 352 353
339 339 340 339 340 340 340 340 340 341 343 343 345 345 346 346 347 348 347 345 344 343 341 340 339 339 338 339 340 341 341 343 344 345 346 346 346 346 346 347 346 346 346 346 346 344 342 342 342 342 342 341 342 340 341 342 342 344 346 345 345 345 346 345 344 344 344 344 343 343 343 343 343 345 348 350 349 348 349 349 350 350 350 351 351
339 339 339 339 340 340 340 340 340 340 342 343 345 345 345 346 346 347 347 347 346 345 343 341 340 340 339 340 341 342 342 343 344 345 346 345 345 345 346 347 348 347 347 347 347 345 344 342 342 341 341 340 341 340 340 342 343 344 345 344 343 344 344 344 344 343 343 343 344 343 344 343 343 344 344 346 347 346 346 346 346 346 346 348 349
339 339 339 340 340 340 340 340 340 340 342 343 345 345 345 346 346 347 348 348 347 346 343 342 342 341 341 341 342 342 343 344 344 345 345 345 345 346 347 348 347 347 347 347 347 346 344 343 342 341 341 340 341 341 341 342 343 344 343 343 343 343 343 342 342 342 342 342 342 343 343 342 342 342 341 343 346 347 348 348 347 346 346 348 349
339 339 339 340 339 340 340 340 340 341 342 343 344 345 345 346 346 347 348 347 346 345 344 343 342 342 341 342 341 342 342 343 343 344 343 343 344 346 347 348 347 347 347 346 346 346 345 344 343 342 342 342 342 342 342 342 342 343 343 342 342 342 342 341 341 342 342 342 343 343 343 343 344 343 341 343 346 349 350 351 352 351 351 351 351
340 339 339 340 339 340 340 340 340 341 342 343 343 345 345 346 345 347 347 345 344 344 344 343 343 342 342 342 341 342 341 341 341 341 341 342 343 345 347 347 347 347 347 346 345 344 345 345 344 344 344 344 344 344 344 343 342 343 343 341 341 342 342 341 340 340 341 342 343 343 343 345 345 344 343 344 345 346 347 349 351 352 352 352 351
341 341 340 339 339 340 340 340 340 341 342 343 343 344 345 345 346 346 347 346 345 344 344 344 343 343 343 343 342 342 342 341 340 340 341 341 343 346 347 347 347 347 346 346 345 344 344 345 344 344 345 345 345 346 346 346 345 344 343 341 341 342 343 341 340 340 341 342 342 342 343 345 346 345 343 344 346 347 348 348 349 348 348 348 349
343 342 341 340 340 340 340 340 340 341 342 342 343 344 344 345 345 346 347 347 347 347 346 346 345 344 343 343 343 343 343 342 340 341 341 341 342 345 346 346 346 346 346 346 346 345 345 345 345 346 346 346 346 347 346 347 346 345 344 343 342 343 343 343 341 341 341 342 342 342 343 345 347 346 344 346 349 349 349 348 347 346 345 344 345
343 343 342 341 340 340 340 340 341 341 341 342 343 343 344 344 345 346 347 347 348 347 348 348 348 346 344 343 343 343 343 342 342 342 342 342 342 344 345 344 344 345 345 346 346 346 345 345 346 348 348 347 346 347 346 347 347 346 345 344 343 344 344 343 343 343 342 343 343 342 343 345 347 348 346 346 347 347 347 346 345 345 344 344 343
344 344 343 342 341 341 341 341 341 342 342 342 342 343 343 345 345 346 347 347 348 348 348 348 349 348 346 343 343 343 343 343 344 343 343 343 343 344 344 343 344 344 345 346 346 347 347 347 348 349 349 349 348 349 349 348 349 348 346 345 345 346 347 347 346 345 344 344 344 343 344 345 347 347 345 344 345 346 346 346 345 345 344 344 344
344 344 343 342 342 342 342 342 342 343 342 342 343 343 343 344 344 345 347 347 348 348 348 348 348 349 347 343 341 341 342 343 344 343 343 344 344 344 344 343 344 344 345 346 347 347 348 349 348 349 349 350 351 350 351 350 349 349 347 345 346 348 349 350 349 348 347 347 346 346 347 348 348 346 346 346 347 348 348 346 346 346 345 345 345
344 345 345 344 344 344 343 344 344 343 344 343 343 344 344 344 345 345 346 347 347 348 348 348 348 349 347 344 341 339 340 341 342 343 343 344 345 345 344 343 344 344 345 346 346 348 349 349 349 348 349 351 351 351 350 350 350 350 348 348 349 351 352 352 351 350 349 348 347 349 351 351 350 349 348 347 348 348 348 348 348 348 347 347 346
344 345 345 345 345 344 344 344 345 344 344 344 344 344 344 344 345 345 346 346 347 347 348 348 348 348 348 347 344 342 340 340 340 342 342 344 345 345 345 344 344 344 345 345 346 347 348 349 349 349 350 351 351 351 349 350 350 351 351 351 352 352 352 352 352 351 350 349 349 350 351 351 351 351 349 348 348 349 349 349 349 349 349 348 348
346 346 346 346 345 345 345 345 345 345 345 345 345 345 344 344 345 345 346 346 347 348 348 348 348 348 348 349 348 346 343 341 340 341 342 343 345 345 344 344 345 344 344 345 347 348 348 349 350 351 351 352 352 351 351 350 350 351 352 353 352 352 352 352 352 351 351 350 351 351 352 352 353 352 352 350 350 350 350 349 350 350 349 348 347
347 347 347 346 347 347 346 346 345 345 346 346 346 346 345 345 345 345 345 346 346 347 348 347 348 348 348 349 349 350 348 344 341 340 341 342 343 344 344 344 344 343 343 344 346 348 349 350 351 352 352 353 352 352 352 352 351 351 351 351 351 351 352 352 351 352 352 352 352 352 353 354 353 352 352 352 352 351 351 350 350 349 349 348 347
348 347 347 347 347 347 347 346 346 345 345 345 346 346 346 346 346 346 346 347 347 347 348 347 348 348 348 348 349 350 350 349 346 343 342 342 342 342 343 343 343 344 344 344 346 349 349 350 351 352 352 352 353 352 352 352 352 352 352 351 351 352 352 352 351 351 351 352 352 353 353 353 352 350 350 352 352 352 351 350 349 349 348 348 346
347 348 347 347 347 346 346 346 345 345 345 345 345 346 347 347 346 347 347 347 348 347 348 348 348 348 348 348 349 350 351 352 351 348 345 343 342 342 341 342 343 345 346 345 347 348 349 350 351 352 353 353 352 352 351 351 351 352 352 352 352 352 352 352 351 351 351 351 352 352 352 352 352 350 350 350 350 351 350 350 350 349 349 348 347
347 347 347 347 347 347 346 346 346 346 347 347 346 346 346 347 346 346 348 348 349 349 348 348 348 348 348 348 349 350 352 352 352 352 349 344 343 343 344 344 345 347 348 348 348 349 350 351 351 351 352 350 350 349 349 349 349 350 350 350 351 351 350 349 349 349 349 350 350 350 350 350 350 349 349 349 349 349 349 349 349 349 349 349 348
346 346 347 347 347 348 348 347 346 346 347 347 347 347 347 348 348 348 349 349 350 350 349 350 350 350 349 350 350 350 350 350 351 351 350 345 342 345 348 349 348 349 349 349 349 350 350 351 350 350 349 349 348 347 347 347 347 347 347 348 348 349 349 348 347 347 347 347 348 348 347 347 346 346 346 347 347 348 348 348 349 350 349 349 349
344 345 345 346 347 347 348 348 347 346 345 344 345 345 345 345 345 346 348 349 350 350 351 351 350 350 350 351 349 347 347 346 348 349 349 347 345 346 348 349 350 350 350 349 350 350 350 350 350 349 349 348 347 347 347 346 345 345 345 346 346 348 348 348 347 346 346 345 346 345 345 345 344 343 344 343 344 345 346 347 348 348 349 350 349
343 344 345 345 346 347 347 347 348 347 347 346 345 345 344 344 344 344 346 348 349 349 350 351 351 349 349 349 348 347 346 346 347 347 348 348 347 347 347 347 348 350 350 349 349 349 349 349 349 349 349 349 348 347 347 346 345 345 344 345 345 346 348 348 348 347 347 346 345 345 344 344 344 344 344 344 344 343 344 344 346 347 349 349 350
342 343 344 344 344 345 346 347 348 348 348 348 347 346 346 346 345 345 346 346 347 347 348 349 348 347 346 346 346 347 346 346 347 348 347 347 348 348 347 346 347 348 348 348 348 348 348 347 347 346 347 349 349 348 347 347 346 346 346 345 345 346 347 348 348 348 348 346 346 345 345 345 345 344 345 345 345 344 345 344 345 347 349 350 350
341 342 342 343 343 344 345 346 347 347 347 348 347 347 347 347 347 346 346 346 347 347 347 348 346 344 344 343 344 345 345 345 347 348 347 347 347 347 347 347 346 346 347 347 347 347 347 347 346 346 346 348 349 349 349 348 348 348 347 346 346 346 348 349 348 349 348 348 346 346 345 346 345 345 345 346 346 346 347 347 348 348 349 350 349
340 341 341 341 342 343 344 345 345 345 346 346 346 347 347 347 346 347 347 347 348 347 347 347 346 345 344 344 344 344 344 345 347 348 348 348 348 347 347 347 346 347 348 349 348 348 348 347 347 347 348 349 350 350 351 350 350 349 349 348 348 347 347 348 348 347 347 347 347 346 346 347 347 347 347 347 348 348 349 348 349 348 349 349 348
339 340 340 341 341 341 341 342 342 343 343 344 345 345 345 345 345 345 346 346 347 347 347 346 346 346 346 346 345 345 346 346 347 348 348 349 349 349 349 349 348 348 349 349 349 348 348 348 348 348 348 349 349 349 349 349 349 349 348 348 349 348 347 348 348 348 348 348 348 348 348 348 348 348 349 348 348 349 348 348 348 348 349 347 344
339 339 338 339 339 340 340 340 340 341 341 342 343 343 342 343 343 343 344 344 345 346 346 345 346 346 347 346 346 345 346 346 347 347 348 348 348 348 348 348 348 348 348 347 348 348 348 347 347 347 347 346 347 345 343 343 344 344 344 344 345 345 345 346 347 346 347 347 347 347 347 347 347 347 346 345 345 344 342 340 340 342 342 340 338
334 336 337 337 337 337 337 337 338 339 340 340 341 340 339 339 340 340 340 342 343 344 344 344 344 344 344 344 344 344 344 344 344 344 344 345 345 346 346 345 345 345 345 344 345 345 345 344 344 344 343 343 341 337 335 335 336 337 337 337 337 338 340 343 343 343 342 343 343 343 343 343 342 341 340 340 338 338 337 335 333 333 335 334 333
323 328 332 334 335 335 334 335 335 335 337 337 338 338 337 335 336 337 338 340 341 341 341 341 341 341 342 341 341 341 342 342 342 342 343 343 343 343 343 343 343 342 342 342 342 342 342 342 342 341 339 337 333 330 329 329 330 331 331 330 329 329 331 334 335 335 335 335 336 337 337 336 333 333 333 331 328 327 328 328 327 327 327 327 326
313 316 320 324 326 327 328 328 328 328 329 331 333 334 333 331 330 332 335 337 337 337 337 336 336 336 335 335 336 337 337 338 339 340 340 341 340 340 340 340 339 338 338 337 337 338 337 337 336 335 333 332 330 330 330 330 330 330 329 329 328 328 327 326 325 323 322 323 325 327 328 327 325 324 323 321 321 323 325 324 323 324 324 325 328
312 312 312 313 314 315 315 316 316 316 317 320 323 326 327 325 324 326 329 331 332 332 331 330 329 327 326 326 328 330 332 334 336 337 337 337 337 337 337 336 336 336 335 335 334 333 333 332 332 332 332 332 332 332 332 331 331 331 330 330 329 328 325 322 319 316 314 314 314 315 317 319 319 317 315 316 320 325 328 328 328 328 328 327 328
314 314 313 312 312 312 311 310 310 310 310 310 312 315 316 316 318 323 326 327 327 327 327 326 325 324 325 326 327 327 329 331 333 335 335 334 334 333 332 332 331 330 330 332 333 334 333 333 332 332 332 333 333 333 332 331 331 330 329 328 327 324 320 316 314 312 311 310 311 311 311 312 314 314 315 318 321 325 328 330 329 328 327 326 325
316 315 314 314 313 313 313 313 312 311 310 308 308 308 308 309 313 319 324 325 326 326 326 326 325 324 325 328 329 328 328 329 329 329 328 328 328 328 328 328 327 326 325 326 329 332 334 333 332 332 332 332 332 332 332 331 330 328 326 325 322 318 315 312 310 309 308 308 311 316 318 318 319 321 323 324 325 327 328 328 327 326 325 324 323
316 316 314 314 315 316 317 318 317 317 316 315 313 311 309 309 310 312 315 318 321 320 320 323 326 325 325 328 329 329 329 329 328 328 327 327 327 327 328 328 328 328 327 327 328 330 332 332 332 332 332 332 331 331 330 329 326 323 321 317 315 313 311 309 308 307 309 312 317 322 324 324 325 325 326 326 325 325 325 324 324 324 323 322 322
316 316 316 315 316 318 319 319 320 320 320 320 319 318 317 315 314 313 312 312 312 311 312 317 322 324 326 328 328 328 327 326 326 327 327 327 327 327 327 326 325 323 322 323 325 327 327 328 329 329 330 330 329 327 325 322 318 316 313 312 310 309 307 307 306 307 312 319 324 325 325 325 325 325 325 324 324 323 323 323 322 322 322 321 320
Wind_Speed
16 17 14 12 11 10 10 9 9 11 12 12 13 14 14 14 16 17 17 16 16 16 17 17 18 18 17 16 15 14 14 13 13 12 13 13 14 14 13 12 12 11 11 9 8 7 7 7 6 5 4 4 4 3 4 4 4 2 3 4 5 7 8 8 6 4 4 4 4 3 2 3 3 4 5 5 6 5 4 3 3 3 3 3 3
16 19 17 15 14 12 12 11 11 12 13 13 14 14 14 14 16 17 17 17 16 16 16 17 17 17 17 17 15 14 13 12 12 13 13 14 14 13 13 12 11 11 10 9 8 7 7 6 5 4 4 3 3 3 3 4 3 2 2 3 5 6 7 7 6 5 4 4 5 4 3 3 3 4 5 5 6 5 4 2 2 2 1 1 2
17 19 19 17 16 14 13 13 13 13 13 14 14 14 15 15 16 17 17 17 17 16 16 17 16 16 16 15 15 14 13 12 12 13 14 14 14 13 12 11 11 10 9 8 8 7 6 5 4 3 3 2 2 3 3 3 2 1 1 3 5 6 7 6 6 6 4 4 5 5 4 4 4 4 5 6 8 6 3 1 1 1 1 1 1
18 19 20 20 18 17 15 15 15 14 14 15 15 15 16 16 16 17 17 17 17 17 17 17 16 16 15 14 14 13 13 13 14 14 15 14 14 13 12 11 10 9 8 8 7 7 5 4 3 3 3 2 1 2 3 3 2 1 1 3 4 5 6 6 6 6 4 4 5 5 4 5 4 5 6 6 8 7 4 0 1 1 2 1 2
21 20 21 21 20 18 17 17 16 15 16 16 16 16 16 16 16 17 17 16 17 17 17 17 17 17 18 17 16 15 15 15 15 15 15 15 14 12 12 11 10 9 8 8 7 6 5 4 3 3 3 2 2 2 3 3 3 2 1 3 4 4 5 5 6 5 4 4 5 5 4 4 4 5 5 5 7 8 5 1 1 2 3 3 3
24 23 23 22 21 20 18 18 18 17 16 17 17 16 16 16 16 16 17 16 16 18 18 18 18 19 20 20 19 18 17 16 16 15 15 14 13 12 12 11 10 9 8 8 7 6 6 4 4 4 4 3 3 3 3 3 3 2 2 2 4 3 3 4 5 5 5 4 5 5 3 3 4 5 5 4 5 6 6 4 2 2 4 5 5
25 25 25 23 22 21 20 19 19 18 17 17 17 17 17 17 17 17 17 16 17 18 19 18 19 20 20 20 19 18 17 16 15 14 13 13 12 12 11 10 10 9 8 8 7 6 6 5 5 4 4 3 3 3 3 3 3 3 2 2 3 2 2 3 3 3 4 4 4 5 4 3 4 5 4 4 4 5 5 5 4 3 3 5 5
25 26 26 25 23 21 20 20 20 18 17 17 18 18 18 18 18 17 17 17 17 19 19 19 19 19 19 18 17 16 15 14 13 13 13 13 12 11 11 10 10 9 8 8 8 7 6 6 5 5 4 4 3 3 3 3 3 3 2 2 2 2 2 2 2 2 3 3 3 4 4 3 3 4 4 3 3 3 4 5 5 5 5 5 6
27 28 28 26 24 21 20 20 20 19 18 18 18 18 18 18 18 17 17 17 18 20 20 20 19 18 18 18 16 15 14 13 12 12 12 12 12 12 11 11 10 9 9 8 8 7 7 6 5 5 4 4 3 3 3 3 2 3 3 3 2 1 1 2 2 2 2 2 3 3 3 3 3 4 4 4 3 3 3 4 5 5 5 6 7
28 28 29 26 23 21 21 21 21 20 18 18 17 17 18 18 18 18 18 18 18 20 21 20 20 19 18 17 16 15 15 14 12 11 12 12 12 12 11 11 10 9 9 8 8 8 7 7 6 5 5 4 4 4 4 3 3 3 4 4 4 3 2 1 0 1 2 2 2 3 3 3 2 3 3 3 3 3 3 4 5 6 6 7 8
28 29 30 27 24 23 23 22 22 21 19 19 18 18 18 18 18 18 18 18 18 19 20 20 20 20 19 18 16 16 15 14 13 12 12 12 12 12 11 11 10 9 9 8 8 8 7 7 6 6 6 6 5 5 4 3 4 4 4 4 5 4 4 2 2 1 2 2 2 3 3 3 2 2 3 3 4 3 4 5 5 6 7 7 9
29 30 30 28 28 27 25 24 23 22 20 20 19 19 19 19 19 19 19 19 18 18 19 19 20 20 19 18 17 16 14 13 13 12 11 11 11 11 11 11 10 10 9 9 8 8 8 8 8 7 7 7 6 6 5 5 5 5 4 4 5 5 5 5 4 3 3 3 3 4 4 3 3 3 3 4 5 5 5 6 6 7 8 8 10
29 31 31 30 30 29 26 25 24 24 22 21 20 20 20 19 19 20 19 19 18 18 18 18 19 20 19 18 17 15 14 13 12 11 11 11 11 11 11 11 10 10 10 9 9 9 8 8 8 8 8 8 7 7 6 6 5 5 4 4 5 6 6 7 7 6 5 5 5 5 5 4 4 4 4 4 5 6 6 6 6 8 8 8 10
30 31 32 32 31 29 27 25 24 24 23 21 21 21 21 20 21 21 19 19 18 18 18 18 18 19 19 18 16 15 14 13 12 12 11 10 10 11 10 10 10 10 10 9 9 9 9 9 9 9 9 8 8 8 7 7 6 5 5 5 5 6 7 7 8 8 8 7 7 7 6 5 5 6 5 5 5 6 6 6 7 9 8 8 9
32 32 33 33 32 30 28 25 24 24 23 22 21 21 22 21 21 21 20 19 19 19 19 19 18 19 19 18 17 16 15 13 13 12 11 10 10 10 10 10 10 10 10 9 10 10 9 9 9 9 9 9 9 9 8 8 7 7 6 6 6 7 7 8 8 8 9 9 9 9 8 7 8 8 7 6 6 6 6 7 9 9 9 9 8
33 33 33 34 33 31 29 26 25 24 24 23 22 21 22 22 21 21 21 20 19 19 19 19 18 18 19 19 18 17 16 14 14 13 12 11 11 11 11 11 11 10 10 10 10 10 10 9 9 10 10 11 11 10 9 8 8 8 7 7 7 8 8 8 8 9 9 9 10 11 10 10 11 10 9 9 9 9 9 9 9 8 8 9 9
35 34 34 34 33 31 29 27 26 25 24 23 21 20 21 21 21 21 21 20 20 19 19 19 19 18 19 19 19 18 17 15 14 14 14 13 12 11 11 11 11 11 11 11 11 11 10 10 10 11 11 12 12 11 10 9 9 8 8 8 8 9 9 8 9 9 9 9 9 10 11 11 12 11 10 10 10 10 10 10 9 8 8 9 8
36 34 34 34 33 31 30 28 26 25 24 22 20 19 19 20 20 21 21 21 20 19 18 19 19 19 19 19 19 19 18 17 15 15 15 14 13 12 12 11 11 11 11 11 11 11 12 11 11 12 12 12 12 11 11 10 10 9 9 9 9 9 9 9 9 9 9 9 9 9 10 10 11 11 10 10 10 11 11 11 11 10 10 10 9
35 34 34 34 33 32 30 28 27 26 25 23 21 20 19 19 19 19 20 20 19 19 18 18 18 19 19 18 18 18 18 18 17 16 16 15 14 13 12 11 11 11 12 12 12 12 12 13 12 12 13 12 12 12 12 11 11 10 9 10 10 10 9 9 9 9 9 9 9 9 10 10 11 10 10 10 11 12 11 12 12 12 12 11 11
34 34 34 34 33 32 30 29 27 26 26 25 23 21 20 19 18 19 19 19 19 19 18 17 18 19 19 18 17 17 17 18 17 17 16 16 14 13 12 12 12 12 13 13 13 13 13 13 13 13 13 13 12 12 12 12 11 11 11 11 11 10 10 10 10 10 10 10 10 10 10 10 11 11 11 11 11 12 12 12 12 11 11 10 10
34 34 34 34 33 32 31 29 28 27 27 27 25 23 21 20 18 18 19 19 20 19 18 17 18 18 18 18 18 18 17 17 17 17 16 15 14 13 13 12 12 13 13 14 14 14 14 14 14 14 14 13 12 12 12 12 12 12 12 12 11 11 11 11 11 10 10 11 11 11 11 11 11 12 12 11 11 11 11 11 11 10 9 9 10
33 34 33 33 33 32 31 30 29 28 28 28 27 25 23 21 19 18 19 20 20 20 19 18 18 18 18 18 18 18 18 18 18 17 17 15 14 14 13 13 13 13 13 14 14 14 14 14 14 14 14 13 13 12 12 12 13 13 13 13 12 12 12 12 12 11 11 11 12 12 12 11 11 12 12 11 11 10 9 9 8 8 8 8 9
31 31 32 33 33 32 31 31 30 28 28 28 28 26 24 22 20 18 18 18 18 18 18 18 18 18 18 18 18 18 18 18 18 18 17 16 15 14 14 14 14 13 13 14 15 15 15 15 15 14 14 14 13 13 13 13 14 14 13 14 13 12 13 13 13 12 12 12 13 13 12 10 10 11 11 11 11 11 10 9 9 9 9 10 10
29 29 31 32 32 32 32 31 30 29 28 28 28 26 25 23 21 19 18 17 17 16 17 17 17 18 18 18 19 19 19 18 18 18 17 16 15 15 15 15 14 14 14 14 14 15 15 15 15 15 14 14 14 13 14 14 14 14 14 14 13 13 13 13 13 13 12 13 13 13 12 10 10 11 11 10 10 10 9 9 9 10 10 11 11
29 28 29 30 31 32 32 31 29 28 28 28 27 26 26 24 22 20 19 18 17 16 16 16 16 17 18 18 18 19 19 19 18 18 17 16 16 16 16 16 15 15 14 13 14 14 15 15 15 15 14 14 14 14 15 15 15 14 14 14 14 13 13 13 13 13 13 13 14 14 12 12 12 12 11 10 9 9 9 9 10 10 10 11 11
29 28 28 29 30 31 30 30 29 28 28 28 27 26 26 24 23 21 20 19 18 17 16 15 16 17 17 18 18 19 19 19 19 18 17 17 17 17 17 16 16 15 14 14 14 14 14 15 15 14 14 14 14 15 15 15 14 14 14 15 15 14 14 14 13 13 13 13 14 14 14 13 13 13 12 12 10 10 10 10 9 10 10 11 12
26 27 28 29 29 29 28 29 29 28 28 27 26 26 26 25 24 22 20 20 19 18 17 16 16 17 17 17 18 18 18 18 18 18 18 18 17 17 17 16 16 15 15 14 14 14 15 14 15 15 14 14 14 14 15 15 14 14 14 15 15 14 14 13 13 14 13 14 14 14 14 14 14 14 13 12 11 11 11 11 9 9 10 11 12
20 22 25 26 27 27 26 27 27 27 28 28 27 26 26 26 25 24 22 21 20 19 19 17 17 16 17 16 17 17 16 16 17 17 18 18 18 17 17 17 16 15 15 15 15 15 15 14 15 15 14 14 14 14 15 15 14 14 14 14 14 14 14 14 14 14 14 14 14 14 13 13 14 14 14 13 13 12 12 12 11 11 11 12 13
16 17 19 21 22 23 24 24 25 26 26 27 27 27 27 27 26 26 24 22 21 20 20 19 18 17 15 15 15 16 16 15 15 16 17 18 18 18 17 17 17 16 16 15 15 15 15 15 15 15 14 14 14 14 15 15 14 14 13 13 14 14 14 14 14 14 14 15 15 15 14 13 14 14 15 15 15 14 14 13 13 13 13 14 14
15 14 13 14 15 17 20 21 22 23 24 26 27 28 27 27 27 26 25 24 22 21 21 20 20 18 15 14 15 15 16 16 16 16 17 18 18 18 17 17 18 17 17 17 16 16 16 16 15 15 15 15 15 15 15 14 14 14 13 13 14 14 14 14 15 15 15 15 16 16 16 16 15 15 16 17 16 16 15 15 15 15 15 15 15
10 9 9 9 11 13 16 19 21 23 23 25 26 27 28 28 27 27 26 25 23 22 21 21 21 20 18 16 16 16 16 17 16 16 16 17 18 17 17 18 18 18 18 17 17 17 17 17 16 16 16 16 16 16 15 14 15 15 15 15 15 15 15 15 16 16 16 16 15 16 16 16 17 17 17 17 17 17 17 16 16 15 15 15 15
5 6 6 8 10 12 14 17 20 22 24 25 26 27 28 28 28 28 27 26 25 24 23 22 21 21 20 19 18 17 17 17 17 17 16 16 17 18 18 18 18 18 18 18 18 18 18 18 18 18 18 17 17 16 15 15 15 16 17 17 17 17 17 17 17 17 17 16 15 15 15 15 17 18 18 17 17 17 17 16 16 16 16 16 16
4 5 5 6 8 10 13 15 18 20 23 25 26 27 28 28 27 28 27 26 26 26 25 24 22 21 22 21 20 18 17 17 17 17 17 17 17 18 18 18 18 17 18 18 19 19 18 18 18 19 19 18 17 16 16 16 16 16 17 17 18 18 18 18 18 17 17 17 16 16 16 16 18 19 18 18 18 18 18 17 17 17 17 18 18
2 4 5 6 6 7 9 11 14 16 18 21 23 25 26 25 25 25 26 26 28 28 27 26 24 22 22 22 22 20 18 17 17 17 18 18 18 18 19 19 19 18 18 18 18 18 19 19 18 19 19 18 18 17 17 17 17 17 17 18 19 20 20 20 19 18 18 17 17 17 17 18 19 19 19 19 19 19 19 19 19 19 19 20 21
1 2 4 6 7 8 9 10 11 11 11 13 16 19 20 20 21 22 23 25 26 27 27 27 25 24 24 24 23 21 19 17 16 17 19 20 19 18 17 19 19 19 19 18 18 19 18 18 19 20 20 19 19 18 18 18 18 18 18 19 19 20 20 20 19 19 19 18 18 18 18 19 19 20 20 20 20 21 21 21 21 21 22 23 24
3 0 2 3 5 7 9 10 13 13 10 8 10 13 13 13 13 15 17 20 22 24 25 25 24 23 22 21 20 20 19 17 14 15 18 20 20 18 17 18 19 19 20 19 19 19 19 18 19 20 20 20 20 20 19 19 19 19 20 21 21 20 20 20 20 20 20 20 20 20 21 20 21 21 21 22 22 23 23 23 24 24 25 26 27
6 4 1 1 2 4 5 6 10 14 13 11 11 12 11 11 11 12 13 16 17 18 19 20 20 20 20 18 18 19 19 17 16 15 17 19 20 20 19 18 18 19 20 20 20 20 20 20 19 19 19 20 21 22 22 22 21 21 21 22 23 23 22 22 22 22 22 22 22 23 22 22 22 22 22 23 24 24 25 26 26 26 27 27 28
8 6 4 2 1 2 4 5 5 8 10 11 12 11 11 12 14 15 15 15 14 13 14 15 16 17 18 17 17 18 17 16 17 18 18 19 21 21 20 19 19 20 20 21 21 21 21 21 21 20 20 21 22 23 24 24 24 23 23 23 24 25 25 25 25 25 25 25 25 24 24 24 24 24 24 24 25 25 26 27 27 28 29 27 28
11 9 8 6 4 1 1 1 2 2 2 3 4 6 8 11 12 14 15 14 13 13 12 12 13 15 16 15 17 19 19 17 18 19 20 21 20 19 19 20 20 20 21 22 23 22 23 23 23 22 22 23 25 25 26 26 26 26 26 26 26 26 26 27 27 27 27 28 28 27 26 26 26 26 26 26 27 27 28 28 28 29 29 27 28
15 14 12 10 8 5 3 4 2 2 3 2 3 6 8 9 9 11 12 12 14 15 15 15 16 17 17 16 18 19 18 18 18 17 17 17 16 16 17 18 18 18 20 23 23 22 21 22 21 21 21 23 26 27 28 28 28 28 28 29 30 29 28 28 28 27 26 26 27 27 27 27 27 26 26 27 28 29 29 30 30 30 29 27 28
16 15 14 14 15 14 11 7 5 4 5 4 4 5 6 5 5 7 8 10 13 16 16 16 16 14 12 13 14 14 14 16 17 15 15 15 14 15 16 17 17 17 18 21 23 21 20 20 19 19 20 22 24 27 29 29 29 28 27 28 29 29 28 27 26 26 25 25 26 26 27 28 28 27 28 28 29 30 31 32 32 31 30 29 28
17 16 16 17 18 19 18 16 13 10 8 6 6 7 7 6 6 5 5 6 6 7 9 11 12 10 8 8 9 9 10 11 11 11 12 13 14 14 15 16 17 16 17 20 20 19 18 18 18 18 18 20 22 23 24 26 28 27 25 25 27 28 27 26 24 24 24 25 26 27 27 28 27 27 27 28 27 28 29 29 27 26 27 26 20
19 19 19 19 20 21 21 21 19 17 15 12 11 13 14 13 13 11 10 10 9 8 8 8 8 7 6 4 4 4 5 5 7 8 9 10 11 11 11 12 13 13 14 15 15 15 15 15 15 15 15 15 16 16 15 16 18 18 17 18 20 20 19 20 21 21 22 24 26 27 28 28 28 28 26 24 23 21 18 16 15 15 17 14 8
20 20 20 21 22 23 23 23 22 20 19 18 17 18 20 21 19 15 12 11 11 9 9 9 10 9 8 7 5 4 2 1 2 4 4 5 6 6 6 7 8 9 10 11 11 11 10 9 9 9 8 8 9 8 8 7 7 8 7 6 6 5 5 9 13 14 15 17 19 21 22 22 21 21 19 14 12 11 9 7 6 4 4 3 5
19 19 19 20 21 22 22 23 22 21 20 20 19 19 22 24 23 19 17 16 14 12 12 13 14 13 12 11 11 10 9 8 6 4 2 2 3 2 2 2 2 2 4 6 6 5 4 4 3 2 1 2 4 5 6 5 4 3 4 5 5 6 5 3 4 5 6 8 9 10 12 10 8 9 7 2 1 2 2 1 1 3 5 6 5
19 19 18 18 18 19 20 20 20 19 19 19 18 19 21 22 20 18 18 17 17 17 18 20 20 19 18 16 16 16 15 13 12 10 9 8 8 9 9 9 9 8 6 4 4 4 4 5 5 6 6 7 8 9 10 9 8 7 7 7 7 8 8 7 6 5 5 4 4 4 4 3 2 2 3 6 8 7 6 5 6 6 5 3 3
19 19 18 18 18 19 19 19 19 18 17 17 17 18 18 17 16 15 14 14 14 15 17 18 19 17 16 14 15 16 16 14 14 14 14 14 14 14 14 15 14 14 13 11 9 9 9 9 9 10 9 9 8 8 7 7 7 7 6 6 7 8 7 7 6 6 5 4 3 3 3 3 3 5 8 9 9 6 5 5 5 6 5 5 5
20 19 19 20 20 21 20 20 19 17 15 15 15 16 15 14 14 13 11 10 12 13 14 16 17 16 16 16 16 17 16 15 14 14 13 14 14 14 14 14 13 13 12 11 10 10 9 9 8 7 6 6 6 6 6 6 6 6 7 8 9 10 10 9 8 6 4 3 3 3 4 4 4 6 8 8 7 6 6 7 7 8 8 7 5
19 19 19 20 21 22 22 23 22 20 18 17 16 16 15 14 14 12 10 10 11 12 13 15 16 16 16 17 16 17 17 16 15 14 14 14 14 14 13 13 12 11 10 9 8 7 7 6 4 3 2 3 4 5 6 7 7 8 9 11 11 12 12 11 9 6 4 3 4 6 7 6 7 8 8 8 8 8 9 9 9 8 7 5 2
19 19 19 19 20 22 22 22 22 21 20 20 19 18 17 16 15 13 11 10 9 9 11 13 14 14 15 15 14 15 15 15 14 14 14 14 14 14 13 12 12 11 9 8 6 4 4 4 3 2 0 1 3 5 7 8 9 10 11 11 11 10 9 8 6 4 4 5 7 8 9 8 8 8 9 9 9 9 9 8 7 5 3 1 2
18 18 18 18 18 18 18 18 18 18 17 18 17 17 17 17 16 15 13 12 10 9 9 11 12 12 13 13 13 13 13 12 12 12 13 13 12 12 11 10 10 10 8 7 5 3 2 2 2 1 1 2 4 6 7 9 9 10 9 8 7 5 5 4 4 5 8 8 8 8 9 9 9 9 9 9 9 7 6 5 3 1 2 3 5
Wind_Direction
212 216 216 219 223 226 223 213 205 198 189 185 185 184 181 179 176 174 171 165 163 160 157 157 156 155 155 154 154 154 154 155 156 157 157 158 159 159 161 163 165 168 171 173 175 174 169 165 167 165 153 142 144 168 196 216 233 271 330 353 13 11 6 14 24 31 15 12 28 37 59 76 75 57 44 39 33 29 29 46 85 90 81 73 65
215 221 223 227 228 228 223 213 208 201 191 186 185 183 182 180 179 180 177 171 167 165 162 160 160 159 158 157 157 157 158 159 161 162 161 162 164 164 164 165 168 171 173 173 173 170 166 167 170 162 153 145 138 162 200 221 244 279 321 351 12 10 4 14 29 29 19 35 53 56 67 68 58 44 34 27 27 32 36 56 120 115 82 51 56
213 220 225 229 230 230 224 213 209 202 194 190 185 183 183 181 181 183 181 174 168 168 166 163 161 160 159 161 161 162 163 163 165 168 166 166 168 168 167 169 170 170 170 169 166 163 162 168 170 163 157 148 149 162 182 204 226 277 337 359 9 12 5 6 17 23 30 50 55 62 63 43 30 29 25 17 16 24 38 63 150 131 314 341 33
207 216 224 227 229 231 223 213 208 201 197 194 188 185 185 184 183 183 182 177 171 170 169 166 163 162 163 165 165 166 167 167 168 170 169 169 170 169 169 172 171 169 167 165 163 161 161 165 168 171 170 163 167 164 162 168 157 111 36 9 9 17 11 2 4 16 36 47 47 59 53 32 17 7 9 13 13 14 17 74 226 311 305 307 342
208 212 220 225 229 229 221 212 209 204 200 198 192 187 186 185 185 183 182 180 175 172 171 170 168 167 167 167 166 167 170 171 171 171 172 172 172 171 171 172 171 168 166 164 164 166 167 173 173 180 187 178 163 162 157 147 135 118 69 24 16 20 19 17 16 19 38 45 48 60 54 38 20 1 0 5 7 7 4 351 249 281 288 291 301
216 217 221 225 228 228 220 212 211 208 204 202 196 189 188 187 186 186 185 183 180 176 174 174 173 171 170 168 167 169 172 174 173 173 174 174 174 173 172 171 169 167 167 168 172 176 178 181 183 188 194 184 165 166 158 140 135 137 114 49 33 30 31 37 34 32 37 37 48 57 55 47 25 7 7 2 360 6 10 12 335 278 280 288 295
217 219 224 226 225 225 219 211 210 210 207 204 199 191 188 188 188 187 187 187 186 181 178 177 176 174 172 171 171 172 173 173 173 174 176 177 177 177 175 173 173 172 175 178 179 182 184 186 190 194 196 189 180 174 164 149 151 155 141 91 60 61 69 60 44 38 36 35 45 46 42 43 25 14 16 6 6 11 14 19 14 358 340 320 314
212 215 220 224 226 223 217 212 208 208 206 204 200 195 189 187 187 188 188 189 189 187 184 182 181 178 175 173 173 173 173 173 174 175 179 182 182 183 183 183 182 182 183 186 187 187 189 191 195 197 193 192 188 183 176 169 168 173 171 153 108 99 104 89 65 43 30 22 27 26 25 23 15 15 12 6 13 4 1 14 10 6 10 354 337
215 216 219 223 225 222 216 212 207 204 204 203 201 196 190 187 186 186 188 190 191 190 189 187 186 183 181 178 176 174 171 172 175 179 183 185 186 189 190 192 192 191 190 192 193 193 194 196 198 198 196 194 193 189 185 182 188 195 196 195 183 160 139 112 87 58 38 16 3 5 1 348 352 2 3 7 11 354 349 359 354 352 357 350 342
217 218 221 224 223 219 215 213 208 204 202 201 201 197 191 188 187 186 188 190 192 192 192 192 190 188 187 183 179 175 171 172 176 181 185 188 191 193 194 197 199 198 198 199 199 200 201 201 201 202 204 203 195 191 190 192 207 210 211 215 213 210 208 184 94 30 27 16 5 358 342 324 328 349 2 7 1 355 344 337 343 348 344 345 345
216 217 222 224 221 217 215 213 209 205 201 200 201 198 192 189 189 187 188 190 192 194 194 195 194 193 192 189 185 180 176 178 181 183 188 191 194 197 198 201 204 206 205 205 205 207 208 207 208 211 212 209 202 200 202 208 214 215 218 224 227 231 238 247 265 298 323 337 347 339 328 324 323 332 345 342 340 346 338 329 335 339 337 342 343
215 215 216 217 217 216 215 213 210 206 202 199 199 198 194 191 189 188 189 191 192 196 197 198 197 197 195 193 190 185 183 187 189 189 192 194 195 198 202 204 207 210 210 208 209 212 214 214 214 218 219 215 211 212 218 222 219 217 224 231 236 242 247 255 262 272 291 303 312 310 311 322 321 320 327 328 327 327 330 331 332 336 338 340 342
213 213 212 212 215 215 213 212 210 207 203 200 199 198 195 192 189 188 190 193 194 197 200 202 201 199 197 195 192 191 192 194 194 195 196 196 197 200 205 208 209 212 213 211 211 214 219 218 218 223 225 223 222 224 231 230 222 221 233 238 242 247 250 254 256 259 269 278 288 293 295 303 301 302 310 317 323 323 328 330 327 333 335 335 343
212 212 212 212 214 215 213 212 209 207 205 202 200 198 195 192 190 190 192 195 197 199 202 205 205 203 201 200 198 198 200 200 199 198 198 200 203 206 211 214 214 215 215 213 213 217 221 221 223 227 229 228 229 233 237 233 224 224 237 242 244 250 251 253 255 257 262 267 274 278 283 287 286 289 296 304 314 319 323 321 322 329 328 328 340
212 212 212 213 214 215 214 212 210 208 206 204 203 200 197 194 192 192 193 196 199 201 204 206 207 207 206 206 206 206 207 208 206 203 203 206 211 217 221 221 221 219 216 213 213 218 221 222 228 231 232 232 232 236 239 235 230 232 242 247 248 251 253 255 257 258 261 266 269 273 275 278 281 284 289 294 299 303 307 310 318 325 323 323 331
210 211 212 213 213 215 215 214 212 210 207 207 206 203 199 197 195 194 196 199 201 204 206 208 209 209 210 210 210 211 211 212 212 210 209 211 217 223 227 228 226 222 219 217 217 219 222 225 232 235 235 234 233 235 239 239 238 241 246 248 248 252 254 257 260 261 263 266 268 272 273 274 279 282 283 287 289 293 298 303 311 319 320 324 327
209 211 213 213 213 214 216 216 215 212 210 209 207 205 202 200 198 196 198 200 204 206 207 209 211 212 212 212 213 214 215 216 216 215 214 215 218 222 226 228 227 224 222 223 223 223 223 225 231 236 237 235 235 235 238 241 244 246 248 248 248 251 254 257 261 262 263 265 267 270 270 271 275 281 283 285 286 290 294 296 300 304 308 316 319
208 212 214 215 215 216 217 219 218 216 213 211 209 206 205 204 203 201 201 201 204 208 209 210 211 213 215 216 216 217 219 220 221 220 221 222 222 223 225 226 225 224 224 226 228 226 224 225 229 234 238 238 237 237 237 239 242 245 247 249 249 251 254 256 259 261 263 266 268 270 272 271 273 277 280 281 285 289 290 291 293 294 296 301 305
206 208 212 215 216 218 219 220 221 219 218 216 213 211 209 209 208 209 208 206 206 209 212 213 212 214 217 219 221 222 222 223 222 222 224 226 227 227 226 226 225 225 226 228 229 228 227 227 230 234 237 239 239 239 238 238 240 243 244 246 249 250 251 252 255 260 264 267 269 272 274 275 274 275 275 278 285 289 288 289 291 292 291 292 296
203 206 211 215 218 220 221 222 223 221 220 219 218 216 214 213 212 213 214 213 211 212 214 216 216 216 218 218 221 222 224 224 222 222 225 227 228 228 228 227 226 226 229 232 233 232 231 231 233 236 238 238 239 239 238 239 241 243 243 244 247 249 250 250 252 256 262 266 270 272 274 276 277 276 276 278 283 288 289 290 291 291 290 289 293
204 207 212 216 219 221 222 224 224 223 221 220 221 220 217 217 217 216 216 215 214 214 214 216 217 219 220 219 219 221 222 223 223 224 226 227 227 227 229 231 230 229 232 234 236 236 235 234 236 238 240 240 239 238 239 240 242 245 245 247 249 251 253 254 254 256 260 266 270 272 274 276 277 276 277 279 281 285 288 290 292 292 291 291 291
205 208 212 215 219 221 222 223 223 223 223 222 223 223 221 220 218 217 218 216 215 215 215 214 216 219 221 222 222 222 222 223 224 226 228 229 229 228 229 232 233 233 233 235 237 238 238 237 237 239 242 242 241 239 239 240 243 245 247 249 251 253 255 257 258 259 262 266 269 272 275 277 278 276 276 277 277 277 278 282 288 289 289 290 287
207 208 211 215 220 221 222 224 224 223 224 224 225 226 225 222 220 218 218 215 213 215 217 217 216 217 221 223 225 225 226 226 226 227 228 229 230 229 229 232 234 234 235 236 237 239 240 240 239 240 241 242 242 239 237 239 243 245 247 250 251 253 255 257 258 259 261 263 266 271 275 277 277 275 273 273 274 274 272 273 277 280 282 281 279
209 209 211 215 218 219 221 224 224 224 225 226 228 228 228 225 222 220 218 214 212 214 218 220 219 219 221 223 225 227 229 230 230 230 229 229 230 229 229 232 234 235 237 238 239 241 242 242 242 241 241 242 242 239 238 240 243 246 248 251 252 254 255 256 256 256 257 259 263 267 270 272 274 272 268 267 272 273 271 271 275 278 279 278 276
208 209 212 215 216 218 222 224 225 225 226 228 229 230 230 228 224 221 219 216 214 215 219 221 222 223 223 224 225 227 230 232 233 234 233 230 230 231 231 233 235 236 237 240 241 242 242 242 242 242 242 243 243 242 241 242 245 248 249 251 253 254 254 255 255 254 255 257 260 264 265 266 268 269 266 264 266 266 264 266 273 279 281 281 279
208 209 211 214 215 219 223 224 225 226 227 230 231 231 232 230 227 224 221 220 219 219 221 224 226 226 225 224 225 228 230 233 234 235 235 232 230 231 233 235 236 237 237 239 241 241 241 242 243 244 245 246 247 246 245 243 245 248 248 249 251 252 252 253 254 254 255 257 260 261 262 262 262 264 266 263 258 254 255 263 273 279 281 281 280
204 206 208 211 214 218 221 224 226 227 229 232 233 233 233 232 229 226 223 223 224 224 225 227 229 230 228 226 226 229 232 234 235 236 235 233 231 231 233 235 236 238 238 239 241 241 243 244 245 246 248 249 249 248 247 246 246 247 249 249 249 249 249 250 253 255 256 257 259 260 260 260 259 261 262 259 253 251 257 265 273 278 281 284 285
196 201 205 209 213 216 220 223 225 228 231 233 234 235 235 233 231 228 225 224 225 227 228 229 230 232 231 228 227 230 232 234 236 237 236 235 234 233 233 234 236 238 239 242 243 244 245 247 247 247 248 249 249 248 248 249 249 249 249 249 248 247 248 251 255 258 258 258 259 259 260 259 259 258 255 251 252 256 263 269 274 280 285 289 292
190 196 202 207 212 215 218 222 225 229 232 234 235 236 236 236 234 231 228 228 228 229 231 231 232 233 233 232 230 231 232 234 234 235 235 235 236 235 235 235 237 239 241 243 244 245 246 247 247 246 245 247 248 249 250 251 250 249 248 248 248 248 250 254 257 259 260 261 260 260 260 259 258 256 252 250 253 259 266 272 278 285 290 293 294
188 196 202 210 217 222 225 226 228 230 233 236 236 237 237 237 236 234 232 231 231 233 235 234 233 232 233 234 233 232 233 234 234 233 233 234 236 237 237 237 238 240 242 243 242 242 244 245 246 245 245 247 250 251 252 251 248 246 247 250 252 252 254 256 257 259 260 261 262 261 260 258 257 255 254 254 257 262 268 274 281 288 293 294 292
177 193 205 218 229 236 236 235 235 235 236 238 239 240 239 238 238 238 235 233 234 236 237 237 235 234 233 235 236 236 236 236 237 237 236 235 236 238 239 240 240 242 243 243 241 240 242 244 245 245 245 249 252 252 253 252 248 244 245 250 255 257 259 260 261 262 261 262 263 263 263 262 259 258 258 259 262 266 271 276 281 288 293 293 290
174 202 215 226 235 240 239 237 237 239 240 241 242 243 242 241 241 240 238 236 236 238 240 241 239 236 235 236 238 240 240 239 240 241 241 240 239 240 241 242 243 245 245 244 242 241 243 244 245 246 247 251 255 254 253 253 252 249 248 249 253 256 259 262 263 264 264 266 267 265 265 266 264 262 261 262 264 267 271 276 282 289 292 290 291
192 210 220 232 241 246 245 241 238 237 238 240 241 242 243 244 245 244 243 240 239 240 242 244 242 239 237 239 242 244 244 243 241 241 243 245 244 244 245 246 247 247 246 244 243 243 244 245 247 249 251 254 257 258 256 255 257 258 256 256 258 260 263 265 265 265 266 267 267 265 265 265 266 266 265 265 266 268 271 277 283 288 290 289 291
201 217 227 238 247 254 252 247 241 237 237 238 239 239 240 241 243 246 247 246 243 242 243 245 245 241 238 239 242 244 246 246 245 241 238 240 244 246 248 248 246 246 246 244 242 243 245 246 248 252 254 256 259 260 258 257 257 259 260 260 262 264 266 266 265 266 268 268 268 268 268 268 270 271 270 271 271 271 273 276 280 284 286 287 289
54 228 235 244 248 250 250 248 240 228 220 224 229 233 235 236 239 244 249 249 246 245 246 247 247 245 243 242 242 244 246 248 251 250 242 236 236 240 244 245 243 242 243 242 241 243 247 249 252 254 257 260 262 263 262 261 259 259 261 262 264 266 266 265 264 265 267 269 271 271 271 271 272 272 272 273 274 275 275 276 278 280 282 283 285
73 136 234 244 252 256 256 251 239 226 212 202 204 210 216 222 230 242 250 250 249 249 249 249 248 248 249 247 246 247 247 245 251 260 255 243 233 229 234 240 243 245 245 243 241 242 245 251 256 261 263 265 265 265 265 265 264 263 263 263 264 266 266 265 264 265 266 268 270 270 270 271 272 272 273 273 274 275 275 275 276 277 278 280 282
66 61 55 287 280 284 284 268 239 226 221 217 209 206 212 220 228 239 247 249 248 247 248 248 249 252 253 251 248 247 244 241 244 254 261 254 240 231 231 234 241 250 251 247 244 244 244 247 253 261 267 268 267 267 268 267 267 267 266 265 263 263 263 264 264 266 268 269 269 268 268 270 272 275 277 278 278 276 275 274 274 274 274 276 278
65 61 59 49 355 280 289 298 269 232 217 214 216 217 223 230 233 236 240 244 245 243 244 245 244 244 245 247 248 249 247 247 248 252 260 261 254 246 244 243 248 257 261 257 250 247 248 249 252 258 266 270 271 270 268 267 268 269 269 268 265 262 260 261 263 265 267 268 267 267 268 270 272 275 276 277 277 277 276 275 273 272 272 272 273
64 59 53 49 52 54 254 290 300 267 186 185 207 216 222 227 230 233 236 238 240 242 239 233 231 237 243 248 254 255 253 255 260 259 258 260 259 255 252 253 257 264 269 268 260 254 254 256 257 260 265 267 269 269 267 267 267 268 269 270 268 265 261 259 260 262 264 265 265 266 267 268 270 271 272 273 274 274 273 272 271 270 269 266 266
68 65 61 60 64 77 122 146 141 124 118 130 197 218 223 223 224 232 235 235 237 238 234 232 238 248 250 247 250 253 251 255 263 264 257 255 255 253 253 257 262 266 269 270 267 262 261 262 261 262 262 262 265 267 266 265 265 265 267 268 268 267 265 263 262 261 261 263 263 264 265 267 268 270 271 271 272 271 270 268 267 267 265 262 264
75 75 75 76 78 81 92 106 115 128 136 151 183 195 201 204 213 227 230 230 234 235 229 228 234 237 233 231 238 243 241 245 255 260 259 257 256 256 258 261 263 265 266 267 267 265 264 262 260 260 261 262 266 267 266 265 264 263 264 265 266 265 263 262 260 259 260 262 264 265 267 269 271 272 271 270 270 270 269 268 265 264 264 263 263
84 85 83 84 83 81 81 81 80 85 95 116 144 143 136 139 140 135 140 163 193 205 202 207 213 213 212 223 234 237 234 239 250 260 265 265 261 259 260 261 262 265 267 266 265 264 263 262 260 258 261 265 268 270 269 267 264 263 262 261 261 260 256 253 254 256 259 263 267 269 271 272 273 272 270 268 265 263 265 264 259 256 258 259 257
87 87 85 85 84 80 77 75 75 77 84 96 108 108 106 110 110 105 108 119 126 130 140 154 160 155 149 153 172 204 228 247 265 273 273 270 264 258 256 259 263 266 264 260 259 260 260 260 259 258 262 268 273 278 281 275 270 268 265 258 256 256 252 252 259 264 266 268 270 271 271 271 270 268 265 264 261 261 264 266 257 250 253 254 242
83 84 84 85 84 81 79 78 79 81 84 88 92 93 91 87 84 84 89 97 106 116 125 126 122 119 117 113 109 107 94 44 309 295 272 254 250 246 246 257 265 266 259 251 250 252 250 246 248 255 265 278 290 303 311 302 288 287 288 280 279 286 275 266 271 278 279 278 276 274 270 268 269 268 265 262 263 266 273 279 271 254 233 182 152
82 81 82 83 83 83 82 79 78 78 79 82 86 88 86 80 76 78 83 87 92 98 102 101 100 100 99 95 94 92 85 78 69 59 78 161 177 169 171 192 208 225 238 234 230 230 223 212 216 235 309 0 18 31 32 28 20 8 5 12 19 24 26 2 314 312 310 300 294 285 274 271 276 275 265 251 72 43 25 12 114 111 108 114 129
81 80 80 80 80 79 78 76 74 71 73 76 79 81 80 76 72 72 76 82 89 92 93 92 92 92 93 94 95 93 88 84 81 77 78 88 96 103 108 110 110 109 107 112 120 123 124 118 106 99 94 85 78 74 68 61 55 53 48 44 42 39 39 40 35 25 20 8 349 333 309 303 333 13 56 61 58 63 79 100 110 107 105 114 127
79 78 79 81 81 79 78 76 73 70 70 74 78 79 78 75 72 71 72 76 79 81 84 85 84 82 82 83 85 86 85 84 84 85 86 90 95 101 105 105 102 100 99 96 93 95 100 97 94 95 96 88 77 69 63 52 40 33 29 23 20 18 18 23 21 19 33 45 39 33 27 9 22 56 65 60 53 61 95 115 109 101 109 124 129
79 79 80 82 82 81 80 79 77 76 75 75 77 79 79 79 80 81 83 82 77 74 75 78 78 76 74 74 77 82 87 88 89 90 94 97 98 99 99 98 97 97 99 99 96 95 96 94 89 89 87 74 55 37 23 13 6 2 360 355 352 348 346 350 355 358 13 33 44 56 56 48 52 65 74 78 79 86 105 113 109 111 122 130 133
84 83 83 83 83 82 82 81 80 79 79 78 78 78 80 83 85 87 92 92 85 78 77 78 80 81 80 80 83 87 90 90 88 89 90 91 91 90 88 87 87 88 91 95 98 101 103 103 100 88 64 37 17 357 343 341 341 340 338 335 331 332 334 336 343 355 17 45 66 77 78 78 83 90 96 101 103 107 116 120 121 126 130 131 125
88 89 88 88 87 86 84 82 80 77 76 75 75 76 77 79 83 85 88 89 86 82 80 81 82 83 83 84 88 91 91 89 87 87 87 85 84 83 82 81 81 82 84 88 96 110 117 128 155 177 190 334 332 325 322 325 328 325 325 325 326 331 336 338 347 25 77 88 85 86 88 90 96 104 110 113 112 114 118 120 122 125 116 61 353
93 94 94 94 92 88 82 78 76 73 70 68 68 69 69 70 72 75 78 81 83 85 88 88 88 87 85 86 90 93 92 87 84 84 82 80 79 79 79 78 77 76 79 85 95 114 130 148 176 187 229 285 305 315 319 323 326 328 333 340 347 360 9 12 33 73 93 97 95 98 100 102 108 114 119 120 120 119 117 112 104 76 354 332 328